Regional Weather Roundup
Issued by NWS Sioux Falls, SD

Home | Current Version | Previous Version | Text Only | Print | Product List | Glossary On
Versions: 1 2 3 4 5 6 7 8 9 10 11 12 13 14 15 16 17 18 19 20 21 22 23 24 25 26 27 28 29 30 31 32 33 34 35 36 37 38 39 40 41 42 43 44 45 46 47 48 49 50
000
ASUS43 KFSD 191010
RWRFSD

WEATHER ROUNDUP FOR SE SOUTH DAKOTA/SW MINNESOTA/NW IOWA
NATIONAL WEATHER SERVICE SIOUX FALLS SD
500 AM CDT TUE SEP 19 2017

NOTE: "FAIR" INDICATES FEW OR NO CLOUDS BELOW 12,000 FEET WITH NO
SIGNIFICANT WEATHER AND OR OBSTRUCTIONS TO VISIBILITY.


SDZ038>040-050-052>070-191100-
SOUTHEAST SOUTH DAKOTA

CITY           SKY/WX    TMP DP  RH WIND       PRES   REMARKS
BROOKINGS      CLOUDY    65  64  97 S13       29.81F
CHAMBERLAIN    PTCLDY    61  61 100 E10       29.69S FOG
HURON          CLOUDY    66  65  96 S14       29.73F
MADISON        CLOUDY    64  64 100 S12G18    29.81S FOG
MITCHELL       CLOUDY    67  65  93 SE15G23   29.75F
SIOUX FALLS    CLOUDY    67  66  97 S9        29.81S FOG
WINNER         FAIR      65  60  84 S14       29.68F
YANKTON        CLOUDY    67  65  93 SE12      29.78F
$$

MNZ071-072-080-081-089-090-097-098-191100-
SOUTHWEST MINNESOTA

CITY           SKY/WX    TMP DP  RH WIND       PRES   REMARKS
FAIRMONT       CLOUDY    64  64 100 S8        29.88F FOG
JACKSON        CLOUDY    63  63 100 CALM      29.88S FOG
LUVERNE        CLOUDY    64  61  88 S8G16     29.84S FOG
MARSHALL       CLOUDY    65  64  97 SE8       29.84S
MONTEVIDEO     CLOUDY    63  63 100 S7        29.83F FOG
PIPESTONE      CLOUDY    66  64  94 S9        29.83S FOG
REDWOOD FALLS  CLOUDY    64  62  93 SE10      29.85F FOG
TRACY          CLOUDY    66  66  99 S7        29.84F FOG
WINDOM         CLOUDY    64  63  94 S9        29.86F FOG
WORTHINGTON    CLOUDY    64  63  96 SE7       29.86F
$$

IAZ001>003-012>014-020>022-031-032-NEZ013-014-SDZ071-191100-
NORTHWEST IOWA

CITY           SKY/WX    TMP DP  RH WIND       PRES   REMARKS
CHEROKEE       CLOUDY    65  65 100 S8        29.85F FOG
DENISON        CLOUDY    66  66 100 S9G15     29.87S FOG
ESTHERVILLE    CLOUDY    63  63 100 S10       29.87F FOG
LE MARS        CLOUDY    66  66 100 SE8       29.82F FOG
ORANGE CITY    CLOUDY    66  66 100 SE8       29.84S FOG
SHELDON        CLOUDY    64  64 100 SE10G16   29.83F FOG
SIOUX CITY     FOG       65  65 100 SE10      29.81F VSB 1
SPENCER        CLOUDY    66  64  93 SE10      29.86F
STORM LAKE     FOG       64  64 100 S9        29.87S VSB 1/2
$$

ABBREVIATIONS USED IN REMARKS
   TC - TEMPERATURE IN CELSIUS
  WCI - WIND CHILL INDEX
   HX - HEAT INDEX
  VSB - VISIBILITY





USA.gov is the U.S. government's official web portal to all federal, state and local government web resources and services.